SCP
0 0 0 0 0 0 0 0 0 0 0 0 0 0 0 0 0 0 0 0 0 0 0 0 0 0 0 0 0 0 0 0 0 0 0 0 0 0 0 0 0 0 0
0 0 0 0 0 0 0 0 0 0 0 0 0 0 0 0 0 0 0 0 0 0 0 0 0 0 0 0 0 0 0 0 0 0 0 0 0 0 0 0 0 0 0
0 0 0 0 0 0 0 0 0 0 0 0 0 0 0 0 0 0 0 0 0 0 0 0 0 0 0 0 0 0 0 0 0 0 0 0 0 0 0 0 0 0 0
0 0 0 0 0 0 0 0 0 0 0 0 0 0 0 0 0 0 0 0 0 0 0 0 0 0 0 0 0 0 0 0 0 0 0 0 0 0 0 0 0 0 0
0 0 0 0 0 0 0 0 0 0 0 0 0 0 0 0 0 0 0 0 0 0 0 0 0 0 0 0 0 0 0 0 0 0 0 0 0 0 0 0 0 0 0
0 0 0 0 0 0 0 0 0 0 0 0 0 0 0 0 0 0 0 0 0 0 0 0 0 0 0 0 0 0 0 0 0 0 0 0 0 0 0 0 0 0 0
0 0 0 0 0 0 0 0 0 0 0 0 0 0 0 0 0 0 0 0 0 0 0 0 0 0 0 0 0 0 0 0 0 0 0 0 0 0 0 0 0 0 0
0 0 0 0 0 0 0 0 0 0 0 0 0 0 0 0 0 0 0 0 0 0 0 0 0 0 0 0 0 0 0 0 0 0 0 0 0 0 0 0 0 0 0
0 0 0 0 0 0 0 0 0 0 0 0 0 0 0 0 0 0 0 0 0 0 0 0 0 0 0 0 0 0 0 0 0 0 0 0 0 0 0 0 0 0 0
0 0 0 0 0 0 0 0 0 0 0 0 0 0 0 0 0 0 0 0 0 0 0 0 0 0 0 0 0 0 0 0 0 0 0 0 0 0 0 0 0 0 0
0 0 0 0 0 0 0 0 0 0 0 0 0 0 0 0 0 0 0 0 0 0 0 0 0 0 0 0 0 0 0 0 0 0 0 0 0 0 0 0 0 0 0
0 0 0 0 0 0 0 0 0 0 0 0 0 0 0 0 0 0 0 0 0 0 0 0 0 0 0 0 0 0 0 0 0 0 0 0 0 0 0 0 0 0 0
0 0 0 0 0 0 0 0 0 0 0 0 0 0 0 0 0 0 0 0 0 0 0 0 0 0 0 0 0 0 0 0 0 0 0 0 0 0 0 0 0 0 0
0 0 0 0 0 0 0 0 0 0 0 0 0 0 0 0 0 0 0 0 0 0 0 0 0 0 0 0 0 0 0 0 0 0 0 0 0 0 0 0 0 0 0
0 0 0 0 0 0 0 0 0 0 0 0 0 0 0 0 0 0 0 0 0 0 0 0 0 0 0 0 0 0 0 0 0 0 0 0 0 0 0 0 0 0 0
0 0 0 0 0 0 0 0 0 0 0 0 0 0 0 0 0 0 0 0 0 0 0 0 0 0 0 0 0 0 0 0 0 0 0 0 0 0 0 0 0 0 0
0 0 0 0 0 0 0 0 0 0 0 0 0 0 0 0 0 0 0 0 0 0 0 0 0 0 0 0 0 0 0 0 0 0 0 0 0 0 0 0 0 0 0
0 0 0 0 0 0 0 0 0 0 0 0 0 0 0 0 0 0 0 0 0 0 0 0 0 0 0 0 0 0 0 0 0 0 0 0 0 0 0 0 0 0 0
0 0 0 0 0 0 0 0 0 0 0 0 0 0 0 0 0 0 0 0 0 0 0 0 0 0 0 0 0 0 0 0 0 0 0 0 0 0 0 0 0 0 0
0 0 0 0 0 0 0 0 0 0 0 0 0 0 0 0 0 0 0 0 0 0 0 0 0 0 0 0 0 0 0 0 0 0 0 0 0 0 0 0 0 0 0
0 0 0 0 0 0 0 0 0 0 0 0 0 0 0 0 0 0 0 0 0 0 0 0 0 0 0 0 0 0 0 0 0 0 0 0 0 0 0 0 0 0 0
0 0 0 0 0 0 0 0 0 0 0 0 0 0 0 0 0 0 0 0 0 0 0 0 0 0 0 0 0 0 0 0 0 0 0 0 0 0 0 0 0 0 0
0 0 0 0 0 0 0 0 0 0 0 0 0 0 0 0 0 0 0 0 0 0 0 0 0 0 0 0 0 0 0 0 0 0 0 0 0 0 0 0 0 0 0
0 0 0 0 1 1 0 0 0 0 0 0 0 0 0 0 0 0 0 0 0 0 0 0 0 0 0 0 0 0 0 0 0 0 0 0 0 0 0 0 0 0 0
0 0 0 0 1 1 1 0 0 0 0 0 0 0 0 0 0 0 0 0 0 0 0 0 0 0 0 0 0 0 0 0 0 0 0 0 0 0 0 0 0 0 0
0 0 0 0 1 1 1 1 0 0 0 0 0 0 0 0 0 0 0 0 0 0 0 0 0 0 0 0 0 0 0 0 0 0 0 0 0 0 0 0 0 0 0
Wind_Speed
3 5 8 6 7 8 9 10 10 9 9 9 10 10 10 11 11 12 12 13 13 13 14 14 15 15 15 15 15 15 15 15 15 15 14 14 14 13 13 13 12 12 15
3 6 8 7 8 9 9 10 9 9 9 10 10 10 11 11 12 12 12 13 13 13 14 14 15 15 15 15 15 15 14 14 14 14 14 14 13 12 11 9 7 11 14
5 6 8 8 8 9 9 9 9 9 10 10 10 11 12 12 12 12 13 13 13 13 14 14 14 15 14 14 14 14 14 13 12 12 11 10 12 11 10 10 12 13 12
5 7 9 9 9 9 9 9 9 10 11 11 12 12 13 12 12 13 13 13 13 13 14 15 14 14 14 14 14 13 13 12 11 10 7 9 10 12 10 11 12 12 12
6 7 11 9 9 9 9 9 10 10 11 12 12 13 13 13 13 13 13 13 13 13 14 14 14 14 14 14 13 12 11 10 9 8 8 8 9 12 11 11 11 11 11
7 8 12 8 9 9 9 9 9 10 11 12 12 13 13 13 13 13 13 13 13 13 13 14 13 13 13 13 12 11 10 8 9 8 8 8 9 11 10 10 10 10 10
8 8 11 8 8 9 9 9 9 10 11 12 12 12 12 12 13 13 13 13 13 13 13 13 13 12 12 12 11 10 9 6 5 8 7 7 10 11 10 9 10 10 10
8 8 11 10 8 8 8 9 9 10 11 11 11 12 12 12 12 12 13 13 13 12 12 12 12 12 11 11 10 9 6 4 7 8 7 8 11 10 9 8 8 8 9
7 7 7 9 9 8 8 9 10 10 10 10 11 11 11 12 12 12 12 12 12 12 12 11 11 11 10 10 9 7 5 1 3 6 7 7 11 9 9 8 8 8 9
7 7 6 7 7 7 9 10 10 10 10 10 10 10 10 11 11 11 11 11 11 11 11 11 10 10 9 9 8 6 4 3 3 6 5 9 11 9 8 8 7 7 8
6 5 5 7 6 6 7 9 8 9 8 7 8 9 6 6 8 8 11 10 10 10 10 9 9 8 7 9 8 6 5 3 4 3 5 11 9 8 8 8 8 8 8
6 6 5 5 6 5 5 5 4 5 6 4 5 5 5 5 5 6 10 9 8 8 8 8 6 6 5 6 8 7 3 3 2 3 7 11 8 7 7 7 7 7 7
6 6 6 5 4 4 4 3 3 3 3 4 5 4 4 4 4 4 4 5 5 5 5 7 5 3 3 3 2 2 2 2 1 2 8 9 6 6 6 6 7 7 7
5 5 5 6 4 3 3 3 3 2 3 3 4 3 3 3 3 3 2 3 2 2 3 2 2 3 3 3 2 2 2 1 2 2 6 8 5 5 5 5 6 6 7
5 5 5 4 4 3 2 1 2 2 3 3 3 3 2 2 3 3 2 2 1 2 3 2 2 3 2 2 2 2 2 2 2 2 4 7 5 4 3 4 4 5 6
5 5 5 5 5 3 3 1 1 2 2 2 3 3 2 2 3 2 3 2 2 1 2 2 2 2 2 2 2 2 2 2 3 1 2 5 5 4 2 2 2 3 4
5 5 5 5 5 4 3 2 2 2 2 2 3 3 2 2 3 2 2 2 2 2 2 2 2 2 2 2 2 2 2 2 2 2 2 2 4 6 5 4 3 2 2
5 5 5 4 6 5 3 1 1 2 3 2 2 2 2 2 2 1 1 2 2 2 2 2 2 2 2 2 2 2 2 2 2 2 2 2 2 3 5 4 4 3 3
6 6 6 4 5 5 4 3 2 2 2 2 2 2 2 1 2 1 1 2 2 2 2 2 3 2 2 2 3 2 2 3 3 3 3 3 3 2 3 6 5 4 3
7 7 6 6 5 5 4 3 2 2 2 2 2 2 1 1 2 1 2 2 1 1 1 2 2 2 1 2 2 3 3 3 2 3 2 3 2 2 2 3 3 3 4
8 8 7 6 6 5 4 3 3 3 2 2 2 2 1 1 2 1 1 2 1 1 1 2 2 3 3 2 2 3 3 3 4 2 2 2 3 3 3 3 2 1 3
9 9 8 8 7 7 4 3 2 2 1 2 1 2 1 1 1 2 1 1 1 2 2 2 2 2 2 3 2 2 3 3 3 3 2 2 2 2 3 3 3 2 2
10 10 8 8 8 7 6 4 3 3 3 3 3 2 1 1 1 0 1 0 0 1 2 2 3 3 2 2 1 2 1 2 3 2 3 2 2 2 2 3 3 3 3
11 10 9 9 8 8 7 5 5 3 2 2 1 2 2 1 1 1 1 0 1 1 1 3 2 2 3 2 2 1 2 1 1 3 3 3 3 2 3 2 3 3 3
10 10 10 10 9 8 7 6 5 4 2 2 2 3 1 1 1 0 1 0 1 1 0 1 1 3 2 2 1 1 1 1 2 1 2 2 2 2 2 2 2 2 4
10 10 10 10 9 9 8 7 6 4 3 3 3 3 2 2 1 1 1 0 1 1 0 1 2 2 2 2 2 1 2 1 1 1 2 3 2 2 2 2 2 2 3
Wind_Direction
51 69 83 77 74 77 79 79 78 79 81 88 97 101 103 106 107 110 110 111 112 112 112 112 113 114 115 113 114 116 118 118 119 119 119 120 122 125 129 136 145 126 121
67 79 92 82 80 78 79 77 77 76 80 88 95 99 102 103 105 111 113 114 114 114 113 113 114 115 114 114 114 116 118 120 122 123 126 126 125 125 129 130 113 115 129
85 90 96 82 84 81 81 79 77 77 82 86 94 98 101 102 105 112 112 112 112 112 112 112 112 113 114 114 115 116 117 121 126 133 147 137 125 124 126 121 116 124 130
87 87 84 83 84 81 81 80 77 79 83 87 91 96 100 102 105 109 111 111 110 110 110 112 112 112 114 114 114 116 118 122 132 156 151 126 126 124 127 125 126 128 130
89 92 88 80 82 81 79 80 80 81 85 88 92 95 99 100 102 104 108 110 109 110 110 112 112 112 113 114 114 116 120 128 149 166 122 119 118 126 132 130 130 132 133
104 97 93 82 81 80 79 79 80 82 85 88 92 95 96 98 100 101 105 108 108 110 111 112 112 113 114 114 115 118 123 142 175 131 123 127 120 128 135 134 133 133 136
103 100 97 87 80 79 79 82 84 85 87 91 94 94 96 98 100 101 102 106 109 107 107 110 111 112 114 115 117 121 127 152 150 119 124 120 113 126 134 135 136 139 142
100 99 103 103 87 79 78 87 87 88 89 92 93 93 95 98 99 101 102 105 112 111 109 110 111 111 111 115 117 121 133 181 134 122 119 112 112 128 134 134 137 145 152
95 96 99 112 111 101 85 89 89 87 89 94 94 95 96 97 99 100 101 108 115 115 113 110 110 110 113 117 119 123 128 181 141 120 118 114 121 134 140 139 139 145 149
100 97 100 96 97 109 110 98 92 87 87 94 98 100 106 109 108 109 111 109 118 117 115 112 111 110 114 118 120 124 142 205 148 121 115 114 129 139 145 147 152 154 153
101 100 97 100 101 99 100 106 112 107 99 110 113 113 122 111 110 116 97 104 110 113 112 112 113 118 128 132 130 147 189 178 121 102 101 111 133 144 152 159 165 165 163
114 111 102 93 93 97 95 103 102 102 98 90 83 93 98 95 91 96 102 104 105 112 118 117 125 154 193 149 147 181 182 139 124 118 105 120 140 155 163 168 172 173 173
123 114 113 105 104 102 100 99 88 90 92 94 85 87 91 103 113 115 121 128 130 139 137 134 162 161 129 99 119 141 102 102 92 95 106 122 141 165 176 178 182 185 186
123 119 114 116 110 90 74 92 108 104 95 83 87 82 99 103 103 107 105 104 125 129 116 129 118 105 103 112 111 104 115 113 96 87 106 124 141 165 180 187 189 192 193
138 137 127 120 119 123 113 73 84 75 79 93 86 81 82 111 112 103 96 102 110 115 134 125 108 101 107 119 120 115 95 91 92 114 115 125 133 143 166 182 193 198 201
152 144 135 143 136 138 131 112 80 83 84 66 80 77 74 92 103 117 134 123 110 108 90 103 115 114 105 85 99 106 102 97 97 117 128 131 132 134 144 161 175 190 198
163 155 153 152 144 147 140 144 118 100 90 74 75 86 95 107 110 135 126 138 123 121 123 133 125 130 135 125 106 96 107 115 120 126 137 140 137 126 108 101 99 114 171
171 163 174 168 148 148 142 127 99 82 82 86 86 94 95 93 126 143 121 116 121 146 144 142 154 127 120 118 111 108 110 108 103 105 110 113 115 120 120 105 92 83 100
182 177 176 172 161 152 145 147 132 102 89 103 97 80 94 117 145 169 114 100 159 154 156 169 122 140 126 121 129 124 100 95 93 93 91 88 94 98 115 121 114 88 82
184 184 181 178 172 168 161 158 153 130 131 119 102 85 102 144 138 175 153 129 179 148 143 118 129 141 136 140 110 89 82 86 86 84 92 96 95 93 92 105 133 128 97
184 184 184 185 175 179 175 182 164 154 152 135 125 94 102 119 126 189 114 133 190 144 146 160 158 157 157 142 146 126 109 92 83 87 75 80 84 75 68 70 71 93 127
187 186 185 186 183 186 175 175 160 138 162 141 113 107 117 125 174 168 149 188 145 152 165 172 182 198 179 185 206 179 161 139 109 78 89 92 82 84 80 74 68 50 40
189 190 189 186 181 186 178 181 166 171 192 160 149 137 120 110 138 59 152 218 175 208 158 189 201 209 211 213 250 274 238 128 123 109 77 77 80 75 76 76 73 61 50
192 188 187 183 183 181 186 192 191 200 181 133 146 122 131 123 108 126 152 159 253 248 157 223 189 236 231 225 197 265 331 58 183 147 144 120 102 85 67 62 69 68 62
191 185 181 181 183 184 189 189 201 209 184 155 153 136 163 130 122 88 87 85 265 262 195 269 232 257 247 257 233 176 160 179 222 204 152 148 128 103 98 88 79 69 66
188 184 179 179 183 186 190 191 200 198 196 176 178 164 179 162 165 144 161 330 273 315 209 237 248 236 267 282 279 245 225 236 220 196 173 170 138 112 101 91 89 78 69